Terug naar catalogus

STARLINK-32876

ActiefCommunicatieVLEO
NORAD 63151·PAYLOAD·🇺🇸 United States

Gelanceerd Mar 3, 2025 vanaf Cape Canaveral Space Force Station

Loading…

Volgende Passages (komende 24 uur)

TLE

VersSource: CelesTrak SupGP

Epoch: Sep 14, 2026, 21:38 UTC

1 63151C 25043V   26257.90187500  .00045697  00000+0  16550-2 0  2578
2 63151  43.0044  27.2054 0001962 277.5495 135.3446 15.27558448    16

Volg STARLINK-32876 in realtime met AllMySat

Download on the App Store